QPF
0.07 0.12 0.17 0.22 0.18 0.12 0.09 0.10 0.11 0.11 0.10 0.08 0.08 0.09 0.10 0.10 0.08 0.08 0.07 0.07 0.06 0.05 0.05 0.03 0.03 0.03 0.03 0.03 0.02 0.02 0.04 0.04 0.04 0.05 0.05 0.06 0.05 0.05 0.05 0.05 0.04 0.06 0.07
0.06 0.11 0.18 0.18 0.16 0.11 0.08 0.08 0.09 0.13 0.11 0.11 0.11 0.12 0.11 0.11 0.11 0.11 0.10 0.07 0.07 0.08 0.07 0.04 0.03 0.03 0.03 0.03 0.02 0.04 0.04 0.04 0.05 0.05 0.05 0.05 0.05 0.06 0.05 0.06 0.04 0.05 0.07
0.07 0.11 0.12 0.15 0.16 0.11 0.09 0.11 0.11 0.13 0.13 0.12 0.12 0.14 0.13 0.12 0.10 0.10 0.09 0.07 0.07 0.07 0.06 0.05 0.03 0.02 0.02 0.02 0.03 0.05 0.06 0.06 0.05 0.03 0.04 0.08 0.09 0.11 0.08 0.06 0.06 0.06 0.06
0.06 0.08 0.09 0.14 0.16 0.14 0.11 0.14 0.15 0.12 0.09 0.09 0.09 0.08 0.08 0.10 0.09 0.08 0.07 0.07 0.06 0.07 0.06 0.04 0.03 0.02 0.01 0.02 0.02 0.04 0.06 0.06 0.04 0.02 0.02 0.07 0.12 0.12 0.07 0.05 0.07 0.07 0.06
0.05 0.06 0.09 0.13 0.18 0.19 0.15 0.15 0.12 0.07 0.06 0.06 0.06 0.05 0.05 0.05 0.05 0.06 0.06 0.06 0.06 0.06 0.05 0.04 0.03 0.03 0.03 0.03 0.03 0.04 0.05 0.04 0.04 0.02 0.01 0.02 0.05 0.05 0.05 0.05 0.06 0.07 0.07
0.03 0.06 0.08 0.11 0.21 0.22 0.13 0.12 0.08 0.07 0.06 0.07 0.07 0.05 0.04 0.04 0.04 0.05 0.07 0.07 0.07 0.06 0.07 0.04 0.03 0.04 0.04 0.04 0.04 0.04 0.05 0.03 0.02 0.01 0.01 0.02 0.05 0.06 0.05 0.04 0.05 0.08 0.09
0.02 0.02 0.04 0.08 0.17 0.20 0.13 0.09 0.06 0.05 0.05 0.05 0.05 0.04 0.05 0.05 0.06 0.04 0.04 0.05 0.06 0.07 0.08 0.06 0.04 0.04 0.03 0.04 0.05 0.04 0.04 0.02 0.01 0.01 0.01 0.02 0.04 0.04 0.05 0.04 0.05 0.08 0.10
0.02 0.02 0.04 0.09 0.12 0.11 0.08 0.08 0.06 0.04 0.04 0.04 0.03 0.03 0.04 0.04 0.06 0.06 0.05 0.05 0.05 0.08 0.10 0.06 0.04 0.03 0.03 0.03 0.04 0.04 0.04 0.02 0.01 0.01 0.02 0.03 0.04 0.04 0.03 0.03 0.04 0.07 0.09
0.03 0.02 0.03 0.05 0.06 0.07 0.08 0.07 0.05 0.03 0.03 0.03 0.04 0.05 0.07 0.07 0.09 0.09 0.07 0.08 0.09 0.10 0.09 0.07 0.05 0.03 0.03 0.03 0.04 0.03 0.02 0.02 0.02 0.01 0.02 0.04 0.05 0.05 0.05 0.04 0.04 0.05 0.07
0.03 0.01 0.01 0.01 0.01 0.04 0.05 0.04 0.05 0.04 0.03 0.03 0.05 0.07 0.08 0.07 0.08 0.07 0.05 0.06 0.08 0.07 0.06 0.05 0.04 0.03 0.02 0.03 0.03 0.03 0.02 0.02 0.02 0.01 0.03 0.04 0.06 0.07 0.07 0.04 0.04 0.06 0.06
0.02 0.01 0.01 0.01 0.02 0.03 0.02 0.01 0.01 0.01 0.01 0.01 0.01 0.01 0.02 0.03 0.06 0.05 0.04 0.06 0.06 0.05 0.04 0.05 0.05 0.03 0.02 0.03 0.03 0.04 0.04 0.04 0.03 0.02 0.03 0.05 0.08 0.08 0.06 0.03 0.03 0.06 0.05
0.03 0.02 0.01 0.01 0.02 0.01 0.00 0.00 0.00 0.00 0.00 0.00 0.00 0.00 0.00 0.01 0.03 0.03 0.03 0.04 0.03 0.03 0.03 0.04 0.04 0.03 0.01 0.02 0.02 0.04 0.04 0.04 0.03 0.02 0.04 0.07 0.06 0.05 0.04 0.04 0.04 0.05 0.05
0.02 0.02 0.00 0.02 0.02 0.01 0.01 0.00 0.00 0.00 0.00 0.00 0.00 0.00 0.00 0.00 0.01 0.02 0.02 0.01 0.01 0.01 0.01 0.01 0.01 0.01 0.01 0.02 0.02 0.02 0.02 0.03 0.03 0.03 0.06 0.08 0.08 0.07 0.06 0.04 0.04 0.05 0.06
0.01 0.01 0.00 0.00 0.00 0.00 0.00 0.00 0.00 0.00 0.00 0.00 0.00 0.00 0.00 0.00 0.00 0.01 0.01 0.00 0.01 0.01 0.02 0.01 0.01 0.01 0.01 0.02 0.02 0.02 0.02 0.03 0.04 0.05 0.08 0.07 0.08 0.08 0.08 0.06 0.04 0.05 0.06
0.00 0.01 0.01 0.00 0.00 0.00 0.00 0.00 0.00 0.00 0.00 0.00 0.00 0.00 0.00 0.00 0.00 0.00 0.00 0.01 0.01 0.01 0.01 0.01 0.01 0.01 0.01 0.01 0.02 0.02 0.03 0.03 0.03 0.05 0.08 0.06 0.06 0.08 0.09 0.08 0.06 0.05 0.05
0.00 0.01 0.01 0.00 0.00 0.00 0.00 0.01 0.01 0.01 0.00 0.00 0.00 0.00 0.00 0.00 0.00 0.00 0.00 0.01 0.01 0.02 0.01 0.02 0.01 0.00 0.00 0.00 0.02 0.02 0.03 0.03 0.03 0.07 0.10 0.08 0.06 0.06 0.06 0.05 0.04 0.04 0.06
0.00 0.01 0.00 0.00 0.00 0.00 0.00 0.00 0.01 0.02 0.01 0.00 0.00 0.00 0.00 0.00 0.00 0.00 0.00 0.00 0.01 0.01 0.01 0.01 0.00 0.00 0.00 0.01 0.02 0.03 0.02 0.04 0.05 0.09 0.13 0.11 0.07 0.05 0.04 0.04 0.03 0.04 0.05
0.00 0.01 0.00 0.00 0.00 0.00 0.00 0.00 0.01 0.02 0.02 0.01 0.00 0.00 0.00 0.00 0.00 0.00 0.00 0.00 0.00 0.00 0.01 0.01 0.01 0.00 0.01 0.02 0.02 0.02 0.03 0.04 0.05 0.10 0.12 0.08 0.05 0.04 0.04 0.04 0.02 0.03 0.05
0.00 0.01 0.00 0.00 0.00 0.00 0.00 0.00 0.00 0.02 0.03 0.02 0.01 0.00 0.00 0.00 0.00 0.00 0.00 0.00 0.00 0.00 0.00 0.00 0.01 0.01 0.01 0.02 0.02 0.01 0.01 0.02 0.03 0.06 0.06 0.03 0.03 0.04 0.04 0.03 0.02 0.05 0.07
0.00 0.00 0.00 0.00 0.00 0.00 0.00 0.00 0.00 0.00 0.01 0.02 0.02 0.01 0.00 0.00 0.00 0.00 0.00 0.00 0.00 0.01 0.01 0.01 0.01 0.01 0.01 0.02 0.03 0.02 0.01 0.01 0.02 0.03 0.02 0.02 0.02 0.02 0.02 0.02 0.02 0.02 0.04
0.00 0.00 0.00 0.00 0.00 0.00 0.00 0.00 0.00 0.00 0.00 0.01 0.02 0.01 0.01 0.00 0.00 0.00 0.00 0.01 0.01 0.01 0.01 0.01 0.01 0.01 0.01 0.03 0.05 0.02 0.01 0.02 0.02 0.03 0.03 0.02 0.02 0.02 0.02 0.01 0.02 0.03 0.05
0.00 0.00 0.00 0.00 0.00 0.00 0.00 0.01 0.00 0.00 0.01 0.01 0.01 0.01 0.01 0.00 0.00 0.00 0.00 0.01 0.01 0.01 0.01 0.01 0.01 0.01 0.01 0.03 0.04 0.03 0.02 0.03 0.03 0.02 0.02 0.02 0.02 0.03 0.02 0.01 0.01 0.05 0.09
0.01 0.00 0.00 0.00 0.00 0.01 0.01 0.00 0.00 0.00 0.00 0.01 0.01 0.00 0.00 0.01 0.01 0.00 0.00 0.00 0.00 0.01 0.01 0.01 0.01 0.02 0.02 0.02 0.02 0.02 0.02 0.02 0.03 0.02 0.01 0.01 0.01 0.01 0.01 0.01 0.03 0.09 0.09
0.01 0.01 0.01 0.01 0.01 0.01 0.01 0.01 0.00 0.01 0.01 0.01 0.02 0.02 0.01 0.01 0.00 0.00 0.00 0.00 0.00 0.01 0.01 0.01 0.01 0.01 0.02 0.02 0.01 0.01 0.01 0.01 0.01 0.02 0.01 0.01 0.01 0.01 0.01 0.03 0.09 0.15 0.09
0.01 0.01 0.01 0.01 0.01 0.01 0.01 0.01 0.01 0.00 0.00 0.00 0.01 0.01 0.01 0.01 0.01 0.00 0.00 0.01 0.01 0.00 0.00 0.00 0.00 0.01 0.03 0.02 0.01 0.01 0.01 0.00 0.01 0.01 0.01 0.00 0.00 0.00 0.01 0.03 0.09 0.14 0.09
0.01 0.02 0.02 0.01 0.01 0.01 0.01 0.01 0.00 0.01 0.00 0.00 0.00 0.01 0.02 0.01 0.01 0.00 0.00 0.00 0.00 0.01 0.00 0.00 0.00 0.01 0.02 0.01 0.01 0.01 0.01 0.01 0.01 0.01 0.00 0.00 0.00 0.00 0.00 0.01 0.03 0.08 0.11
MSLP
1017.35 1016.83 1016.36 1016.01 1015.80 1015.75 1015.79 1015.88 1015.95 1015.97 1015.91 1015.81 1015.69 1015.60 1015.57 1015.61 1015.72 1015.85 1015.97 1016.04 1016.04 1015.96 1015.82 1015.66 1015.49 1015.35 1015.24 1015.15 1015.06 1014.94 1014.80 1014.61 1014.40 1014.17 1013.94 1013.73 1013.54 1013.38 1013.23 1013.10 1012.98 1012.89 1012.84
1018.02 1017.46 1016.96 1016.58 1016.36 1016.30 1016.34 1016.43 1016.50 1016.52 1016.45 1016.33 1016.18 1016.05 1015.97 1015.97 1016.03 1016.12 1016.20 1016.24 1016.22 1016.14 1016.01 1015.86 1015.71 1015.58 1015.48 1015.38 1015.28 1015.16 1015.00 1014.80 1014.57 1014.33 1014.11 1013.91 1013.75 1013.61 1013.50 1013.41 1013.34 1013.29 1013.29
1018.63 1018.06 1017.53 1017.14 1016.91 1016.83 1016.87 1016.97 1017.05 1017.06 1016.99 1016.86 1016.69 1016.52 1016.40 1016.33 1016.32 1016.35 1016.37 1016.37 1016.33 1016.23 1016.11 1015.98 1015.86 1015.75 1015.66 1015.58 1015.47 1015.34 1015.16 1014.94 1014.71 1014.47 1014.26 1014.08 1013.94 1013.84 1013.76 1013.71 1013.68 1013.69 1013.73
1019.13 1018.56 1018.03 1017.63 1017.40 1017.32 1017.35 1017.44 1017.52 1017.54 1017.47 1017.33 1017.15 1016.96 1016.79 1016.67 1016.59 1016.55 1016.51 1016.46 1016.38 1016.29 1016.18 1016.07 1015.98 1015.91 1015.84 1015.76 1015.66 1015.51 1015.32 1015.09 1014.85 1014.62 1014.42 1014.26 1014.15 1014.08 1014.04 1014.02 1014.03 1014.07 1014.16
1019.46 1018.92 1018.42 1018.03 1017.80 1017.72 1017.74 1017.81 1017.88 1017.90 1017.84 1017.70 1017.51 1017.31 1017.12 1016.96 1016.83 1016.73 1016.63 1016.54 1016.45 1016.35 1016.25 1016.18 1016.12 1016.08 1016.03 1015.97 1015.86 1015.71 1015.51 1015.28 1015.04 1014.82 1014.64 1014.51 1014.43 1014.38 1014.36 1014.36 1014.38 1014.44 1014.55
1019.62 1019.13 1018.68 1018.33 1018.11 1018.02 1018.03 1018.08 1018.12 1018.12 1018.05 1017.92 1017.75 1017.55 1017.36 1017.18 1017.03 1016.89 1016.76 1016.64 1016.53 1016.44 1016.37 1016.32 1016.30 1016.28 1016.26 1016.20 1016.09 1015.93 1015.73 1015.50 1015.28 1015.08 1014.93 1014.83 1014.77 1014.75 1014.74 1014.74 1014.76 1014.80 1014.90
1019.63 1019.21 1018.83 1018.53 1018.34 1018.25 1018.23 1018.24 1018.25 1018.22 1018.13 1018.01 1017.85 1017.67 1017.50 1017.33 1017.18 1017.03 1016.89 1016.76 1016.65 1016.56 1016.51 1016.48 1016.48 1016.49 1016.48 1016.42 1016.32 1016.15 1015.96 1015.74 1015.54 1015.38 1015.27 1015.21 1015.19 1015.18 1015.17 1015.16 1015.15 1015.17 1015.24
1019.54 1019.20 1018.90 1018.67 1018.52 1018.43 1018.38 1018.35 1018.30 1018.23 1018.12 1017.99 1017.85 1017.70 1017.56 1017.42 1017.28 1017.14 1017.01 1016.88 1016.77 1016.69 1016.64 1016.63 1016.64 1016.66 1016.65 1016.59 1016.48 1016.32 1016.13 1015.94 1015.78 1015.67 1015.61 1015.60 1015.62 1015.63 1015.63 1015.60 1015.56 1015.53 1015.55
1019.41 1019.16 1018.95 1018.79 1018.68 1018.59 1018.52 1018.44 1018.33 1018.21 1018.07 1017.93 1017.80 1017.68 1017.56 1017.46 1017.35 1017.23 1017.10 1016.97 1016.85 1016.77 1016.72 1016.71 1016.73 1016.74 1016.72 1016.66 1016.54 1016.39 1016.22 1016.06 1015.94 1015.89 1015.89 1015.94 1016.01 1016.05 1016.06 1016.02 1015.95 1015.88 1015.85
1019.29 1019.12 1019.00 1018.92 1018.85 1018.78 1018.68 1018.55 1018.40 1018.22 1018.05 1017.89 1017.76 1017.65 1017.57 1017.48 1017.39 1017.28 1017.15 1017.01 1016.88 1016.79 1016.73 1016.70 1016.70 1016.70 1016.68 1016.61 1016.49 1016.34 1016.19 1016.06 1015.99 1016.00 1016.07 1016.18 1016.31 1016.40 1016.43 1016.40 1016.31 1016.21 1016.14
1019.21 1019.12 1019.08 1019.07 1019.05 1018.99 1018.88 1018.72 1018.52 1018.30 1018.09 1017.91 1017.77 1017.67 1017.60 1017.52 1017.43 1017.31 1017.17 1017.01 1016.86 1016.74 1016.65 1016.61 1016.60 1016.59 1016.55 1016.48 1016.36 1016.22 1016.09 1015.99 1015.96 1016.02 1016.15 1016.32 1016.50 1016.64 1016.71 1016.70 1016.61 1016.50 1016.40
1019.20 1019.18 1019.20 1019.25 1019.27 1019.24 1019.13 1018.95 1018.72 1018.46 1018.22 1018.02 1017.87 1017.77 1017.68 1017.60 1017.49 1017.35 1017.18 1016.99 1016.81 1016.66 1016.55 1016.49 1016.47 1016.45 1016.42 1016.34 1016.24 1016.11 1016.00 1015.92 1015.92 1016.01 1016.18 1016.40 1016.62 1016.80 1016.90 1016.92 1016.86 1016.75 1016.65
1019.25 1019.28 1019.36 1019.46 1019.52 1019.51 1019.40 1019.22 1018.97 1018.70 1018.45 1018.23 1018.07 1017.95 1017.85 1017.74 1017.60 1017.43 1017.22 1016.99 1016.78 1016.60 1016.48 1016.42 1016.39 1016.39 1016.37 1016.32 1016.23 1016.13 1016.03 1015.97 1015.98 1016.08 1016.26 1016.48 1016.72 1016.92 1017.05 1017.09 1017.06 1016.98 1016.89
1019.36 1019.42 1019.55 1019.68 1019.77 1019.78 1019.69 1019.52 1019.27 1019.00 1018.74 1018.52 1018.35 1018.21 1018.09 1017.95 1017.78 1017.57 1017.32 1017.07 1016.83 1016.64 1016.51 1016.46 1016.46 1016.48 1016.50 1016.49 1016.44 1016.37 1016.29 1016.24 1016.25 1016.33 1016.48 1016.68 1016.90 1017.08 1017.21 1017.27 1017.26 1017.21 1017.15
1019.53 1019.62 1019.76 1019.92 1020.02 1020.05 1019.98 1019.82 1019.60 1019.34 1019.09 1018.87 1018.69 1018.54 1018.39 1018.23 1018.03 1017.79 1017.51 1017.24 1016.99 1016.80 1016.69 1016.66 1016.70 1016.78 1016.86 1016.91 1016.92 1016.90 1016.85 1016.81 1016.80 1016.85 1016.95 1017.09 1017.24 1017.38 1017.48 1017.52 1017.51 1017.48 1017.44
1019.77 1019.87 1020.02 1020.17 1020.28 1020.32 1020.27 1020.13 1019.93 1019.70 1019.47 1019.26 1019.08 1018.92 1018.76 1018.57 1018.35 1018.09 1017.80 1017.51 1017.27 1017.10 1017.02 1017.03 1017.13 1017.27 1017.43 1017.56 1017.66 1017.70 1017.70 1017.69 1017.67 1017.68 1017.71 1017.77 1017.83 1017.88 1017.91 1017.90 1017.87 1017.83 1017.81
1020.07 1020.17 1020.31 1020.45 1020.56 1020.60 1020.56 1020.45 1020.27 1020.07 1019.86 1019.67 1019.50 1019.33 1019.15 1018.95 1018.72 1018.45 1018.16 1017.88 1017.65 1017.51 1017.47 1017.53 1017.68 1017.90 1018.14 1018.37 1018.56 1018.69 1018.76 1018.79 1018.78 1018.76 1018.73 1018.70 1018.66 1018.61 1018.54 1018.46 1018.37 1018.30 1018.27
1020.43 1020.52 1020.64 1020.76 1020.85 1020.89 1020.86 1020.77 1020.62 1020.45 1020.27 1020.09 1019.92 1019.75 1019.57 1019.36 1019.12 1018.85 1018.57 1018.31 1018.10 1017.98 1017.97 1018.07 1018.27 1018.55 1018.88 1019.20 1019.49 1019.73 1019.90 1020.00 1020.03 1020.01 1019.94 1019.84 1019.70 1019.54 1019.36 1019.19 1019.03 1018.92 1018.86
1020.82 1020.90 1021.00 1021.09 1021.16 1021.19 1021.17 1021.10 1020.99 1020.85 1020.69 1020.53 1020.37 1020.19 1020.01 1019.79 1019.55 1019.29 1019.02 1018.77 1018.58 1018.47 1018.48 1018.60 1018.83 1019.15 1019.53 1019.94 1020.33 1020.68 1020.96 1021.16 1021.27 1021.28 1021.22 1021.07 1020.87 1020.62 1020.35 1020.09 1019.85 1019.68 1019.57
1021.22 1021.28 1021.34 1021.41 1021.47 1021.50 1021.49 1021.45 1021.37 1021.26 1021.13 1020.98 1020.83 1020.65 1020.46 1020.24 1020.00 1019.74 1019.48 1019.25 1019.06 1018.96 1018.96 1019.07 1019.30 1019.63 1020.05 1020.51 1020.99 1021.44 1021.84 1022.15 1022.37 1022.46 1022.44 1022.30 1022.07 1021.77 1021.44 1021.10 1020.80 1020.57 1020.42
1021.57 1021.61 1021.65 1021.70 1021.75 1021.78 1021.80 1021.79 1021.76 1021.69 1021.59 1021.46 1021.31 1021.13 1020.94 1020.72 1020.48 1020.23 1019.98 1019.75 1019.56 1019.44 1019.41 1019.49 1019.68 1019.99 1020.40 1020.89 1021.42 1021.96 1022.47 1022.91 1023.24 1023.45 1023.51 1023.43 1023.22 1022.92 1022.56 1022.18 1021.84 1021.56 1021.37
1021.84 1021.87 1021.89 1021.93 1021.98 1022.03 1022.08 1022.12 1022.13 1022.11 1022.05 1021.95 1021.81 1021.64 1021.44 1021.22 1020.99 1020.75 1020.51 1020.28 1020.09 1019.95 1019.88 1019.90 1020.03 1020.28 1020.65 1021.12 1021.67 1022.26 1022.86 1023.41 1023.87 1024.20 1024.37 1024.38 1024.24 1023.97 1023.63 1023.26 1022.91 1022.61 1022.41
1022.01 1022.03 1022.04 1022.08 1022.14 1022.23 1022.32 1022.42 1022.49 1022.52 1022.51 1022.44 1022.32 1022.16 1021.97 1021.76 1021.54 1021.32 1021.09 1020.88 1020.68 1020.52 1020.41 1020.36 1020.41 1020.58 1020.87 1021.29 1021.82 1022.43 1023.07 1023.70 1024.27 1024.71 1025.00 1025.12 1025.07 1024.88 1024.60 1024.27 1023.95 1023.67 1023.47
1022.08 1022.10 1022.12 1022.16 1022.24 1022.36 1022.51 1022.67 1022.81 1022.90 1022.94 1022.91 1022.82 1022.69 1022.51 1022.32 1022.12 1021.92 1021.73 1021.53 1021.35 1021.17 1021.03 1020.93 1020.90 1020.98 1021.18 1021.52 1021.98 1022.56 1023.21 1023.87 1024.50 1025.03 1025.42 1025.65 1025.71 1025.62 1025.43 1025.17 1024.90 1024.67 1024.49
1022.08 1022.11 1022.14 1022.20 1022.30 1022.46 1022.66 1022.88 1023.08 1023.24 1023.34 1023.36 1023.30 1023.19 1023.05 1022.88 1022.71 1022.55 1022.39 1022.24 1022.08 1021.92 1021.76 1021.62 1021.53 1021.52 1021.63 1021.87 1022.25 1022.76 1023.36 1024.01 1024.66 1025.23 1025.69 1026.01 1026.17 1026.18 1026.08 1025.91 1025.72 1025.55 1025.43
1022.07 1022.11 1022.15 1022.22 1022.35 1022.54 1022.79 1023.06 1023.32 1023.54 1023.69 1023.75 1023.74 1023.66 1023.54 1023.41 1023.28 1023.16 1023.06 1022.95 1022.84 1022.72 1022.57 1022.43 1022.30 1022.23 1022.25 1022.39 1022.67 1023.08 1023.60 1024.19 1024.81 1025.39 1025.87 1026.24 1026.47 1026.57 1026.57 1026.49 1026.39 1026.29 1026.22
Thickness
5770 5771 5768 5768 5769 5769 5769 5769 5769 5768 5768 5767 5766 5765 5764 5763 5763 5762 5761 5760 5759 5759 5759 5759 5760 5760 5760 5760 5761 5761 5762 5762 5763 5763 5764 5765 5765 5766 5766 5767 5768 5770 5768
5771 5769 5766 5766 5766 5767 5767 5767 5767 5766 5765 5764 5763 5762 5761 5761 5760 5759 5758 5758 5757 5757 5757 5757 5757 5757 5757 5758 5758 5758 5759 5760 5761 5761 5763 5764 5764 5764 5764 5765 5766 5767 5766
5769 5768 5766 5764 5764 5764 5764 5764 5764 5763 5763 5762 5760 5759 5758 5758 5757 5757 5756 5755 5755 5754 5754 5754 5754 5754 5755 5755 5756 5756 5756 5757 5758 5759 5762 5765 5764 5761 5762 5762 5763 5763 5763
5768 5766 5764 5762 5761 5761 5761 5761 5761 5760 5760 5759 5758 5757 5756 5755 5755 5754 5754 5753 5752 5751 5751 5751 5752 5752 5752 5753 5753 5753 5753 5754 5755 5758 5762 5763 5762 5759 5759 5759 5760 5760 5760
5765 5763 5761 5759 5759 5758 5758 5758 5758 5757 5757 5756 5755 5755 5754 5753 5752 5751 5751 5750 5750 5749 5749 5749 5749 5749 5749 5749 5750 5750 5750 5751 5753 5756 5757 5758 5758 5756 5756 5757 5757 5757 5758
5762 5761 5758 5757 5756 5755 5755 5755 5755 5755 5754 5753 5752 5752 5751 5750 5750 5749 5749 5748 5748 5747 5746 5746 5746 5746 5746 5746 5747 5747 5748 5749 5753 5754 5754 5755 5754 5753 5754 5754 5754 5754 5755
5760 5758 5756 5753 5753 5753 5753 5753 5752 5752 5751 5751 5750 5749 5749 5748 5747 5747 5746 5746 5745 5745 5745 5744 5744 5744 5744 5744 5744 5744 5745 5747 5751 5751 5752 5751 5750 5750 5751 5751 5751 5751 5752
5757 5755 5753 5751 5750 5750 5750 5750 5749 5749 5749 5748 5748 5747 5746 5746 5745 5744 5744 5744 5743 5743 5743 5742 5742 5741 5741 5741 5741 5742 5743 5745 5749 5750 5749 5748 5746 5747 5747 5748 5748 5748 5748
5754 5753 5752 5752 5750 5748 5747 5747 5747 5746 5746 5745 5745 5744 5743 5743 5742 5742 5742 5742 5742 5741 5741 5740 5740 5739 5738 5738 5738 5739 5740 5742 5746 5747 5747 5745 5743 5744 5744 5744 5745 5745 5745
5751 5751 5751 5750 5750 5749 5747 5744 5744 5743 5743 5742 5742 5741 5741 5741 5741 5740 5740 5740 5740 5740 5739 5738 5738 5737 5736 5736 5736 5737 5738 5741 5743 5744 5743 5741 5739 5740 5741 5741 5741 5742 5742
5747 5749 5749 5749 5748 5747 5746 5743 5742 5741 5740 5741 5741 5739 5740 5743 5742 5741 5738 5737 5737 5737 5737 5736 5736 5735 5735 5735 5734 5735 5737 5739 5739 5740 5737 5735 5736 5737 5737 5738 5738 5738 5739
5744 5746 5747 5746 5745 5745 5744 5743 5743 5742 5740 5742 5742 5740 5741 5740 5739 5738 5735 5735 5735 5735 5735 5735 5735 5735 5736 5736 5735 5735 5737 5737 5737 5736 5732 5731 5732 5733 5734 5734 5735 5735 5735
5742 5743 5744 5743 5743 5743 5742 5742 5741 5740 5738 5739 5740 5739 5738 5738 5738 5737 5737 5737 5736 5736 5736 5734 5736 5736 5736 5734 5734 5735 5734 5734 5733 5731 5728 5727 5729 5729 5730 5731 5731 5731 5732
5740 5740 5741 5742 5742 5741 5740 5739 5739 5739 5738 5738 5737 5737 5737 5737 5737 5736 5737 5736 5736 5736 5735 5735 5734 5735 5734 5734 5733 5732 5731 5730 5729 5727 5724 5724 5725 5726 5726 5727 5727 5728 5728
5738 5737 5738 5739 5740 5739 5738 5736 5737 5736 5737 5736 5734 5735 5735 5735 5735 5735 5735 5733 5734 5734 5734 5733 5733 5732 5731 5730 5729 5728 5728 5726 5725 5724 5722 5721 5721 5721 5721 5722 5723 5723 5724
5736 5736 5736 5736 5736 5737 5736 5735 5734 5733 5732 5733 5732 5732 5733 5732 5733 5732 5733 5731 5732 5732 5732 5731 5730 5728 5726 5725 5724 5723 5722 5722 5721 5721 5721 5718 5716 5716 5716 5717 5718 5718 5719
5735 5735 5734 5734 5734 5734 5733 5732 5731 5730 5730 5730 5729 5730 5730 5730 5730 5730 5730 5730 5729 5729 5730 5729 5727 5725 5723 5721 5719 5719 5718 5717 5717 5717 5716 5715 5714 5712 5711 5712 5712 5713 5714
5734 5733 5732 5731 5732 5731 5730 5728 5728 5728 5727 5727 5726 5727 5727 5727 5728 5727 5727 5727 5726 5726 5726 5725 5724 5722 5720 5718 5716 5714 5713 5712 5712 5712 5711 5711 5710 5709 5707 5706 5707 5708 5708
5732 5731 5730 5730 5729 5728 5726 5725 5725 5725 5724 5723 5723 5723 5724 5724 5724 5724 5723 5723 5723 5723 5723 5722 5720 5719 5716 5713 5712 5710 5710 5708 5707 5707 5707 5706 5705 5704 5703 5702 5701 5702 5702
5730 5730 5729 5727 5726 5725 5724 5723 5721 5721 5721 5720 5719 5719 5719 5720 5720 5720 5720 5720 5720 5720 5719 5718 5716 5714 5713 5711 5711 5707 5706 5705 5703 5703 5703 5701 5700 5700 5699 5699 5698 5697 5697
5727 5727 5726 5725 5723 5722 5721 5720 5718 5718 5718 5718 5716 5716 5716 5716 5716 5717 5717 5717 5716 5716 5715 5715 5713 5711 5709 5710 5707 5703 5702 5702 5701 5698 5698 5698 5696 5695 5695 5694 5694 5694 5694
5725 5725 5724 5723 5722 5721 5719 5719 5717 5716 5715 5715 5713 5712 5713 5713 5713 5714 5714 5714 5713 5712 5711 5711 5710 5709 5707 5707 5706 5702 5698 5696 5695 5695 5694 5693 5693 5691 5691 5690 5689 5689 5689
5724 5723 5723 5722 5720 5718 5717 5716 5714 5713 5713 5712 5710 5710 5709 5709 5710 5710 5710 5711 5709 5710 5708 5707 5707 5705 5704 5705 5706 5704 5699 5694 5692 5691 5690 5689 5687 5687 5687 5685 5685 5684 5684
5723 5723 5722 5720 5720 5718 5716 5715 5713 5711 5709 5709 5709 5708 5707 5706 5707 5707 5707 5707 5707 5707 5705 5705 5705 5704 5702 5702 5701 5701 5701 5699 5694 5688 5686 5686 5684 5682 5682 5681 5680 5679 5678
5723 5721 5720 5719 5718 5717 5716 5713 5712 5711 5710 5709 5708 5706 5706 5705 5704 5704 5704 5704 5704 5704 5703 5702 5702 5701 5701 5700 5699 5698 5696 5695 5696 5690 5684 5682 5681 5679 5678 5677 5675 5674 5673
5722 5719 5718 5716 5715 5715 5714 5713 5712 5709 5708 5706 5705 5704 5704 5703 5702 5701 5701 5701 5701 5700 5700 5699 5699 5698 5698 5697 5696 5696 5694 5692 5690 5688 5684 5681 5679 5676 5675 5672 5671 5669 5668